EW2281 Weather Reports


Display with metric or nautical units.
time (UTC)temp
F
wind
direction
speed
MPH
gust
MPH
rain 1hr
in
rain 24hr
in
rain mn
in
humidity
%
barometer
mb
20260506095639 58 16 0.0 0.0 0.00 0.10 0.00 89 962.1
20260506095138 58 16 0.0 0.0 0.00 0.10 0.00 89 961.9
20260506094637 59 17 0.0 0.0 0.00 0.10 0.00 89 961.9
20260506093900 59 17 0.0 0.0 0.00 0.10 0.00 87 961.7
20260506093138 59 17 0.0 0.0 0.00 0.10 0.00 86 961.6
20260506092904 60 16 0.0 0.0 0.00 0.10 0.00 86 961.6
20260506092138 60 257 0.0 0.0 0.00 0.10 0.00 85 961.7
20260506091903 60 257 0.0 0.0 0.00 0.10 0.00 83 961.8
20260506091140 61 257 0.0 0.0 0.00 0.10 0.00 82 961.8
20260506090638 61 257 0.0 0.0 0.00 0.10 0.00 81 961.8
20260506090138 61 257 0.0 0.0 0.00 0.10 0.00 79 961.9
20260506085637 62 257 0.0 0.0 0.00 0.10 0.00 78 962.0
20260506085138 62 257 0.0 0.0 0.00 0.10 0.00 76 962.0
20260506084638 62 257 0.0 0.0 0.00 0.10 0.00 76 962.1
20260506084137 62 257 0.0 0.0 0.00 0.10 0.00 75 962.2
20260506083636 62 228 0.0 0.0 0.00 0.10 0.00 75 962.3
20260506083137 62 197 0.0 3.0 0.00 0.10 0.00 73 962.4
20260506082853 63 301 0.0 3.0 0.00 0.10 0.00 73 962.3
20260506082136 63 294 0.0 2.0 0.00 0.10 0.00 73 962.6
20260506081632 63 273 0.0 3.0 0.00 0.10 0.00 72 962.6
20260506081610 63 302 0.0 3.0 0.00 0.10 0.00 72 962.5
20260506080632 63 302 0.0 3.0 0.00 0.10 0.00 71 962.3
20260506080352 63 277 0.0 3.0 0.00 0.10 0.00 71 962.2
20260506073129 64 203 1.0 7.0 0.00 0.10 0.00 67 962.6
20260506072623 64 288 0.0 1.0 0.00 0.10 0.00 66 962.6
20260506072117 64 267 0.0 5.0 0.00 0.10 0.00 65 962.5
20260506071611 65 302 1.0 5.0 0.00 0.10 0.00 65 962.7
20260506071104 65 281 1.0 5.0 0.00 0.10 0.00 64 962.6
20260506070557 65 292 1.0 5.0 0.00 0.10 0.00 63 962.7
20260506062050 65 298 0.0 6.0 0.00 0.10 0.00 63 962.7
20260506061553 64 290 0.0 1.0 0.00 0.10 0.00 63 962.8
20260506061050 64 284 0.0 1.0 0.00 0.10 0.00 66 962.8
20260506060547 64 289 0.0 1.0 0.00 0.10 0.00 66 962.9
20260506050504 63 213 0.0 0.0 0.00 0.10 0.00 66 963.3
20260506050216 63 213 0.0 0.0 0.00 0.10 0.00 67 963.4
20260506044946 62 213 0.0 0.0 0.00 0.10 0.00 65 963.3
20260506044440 62 213 0.0 0.0 0.00 0.10 0.00 67 963.4
20260506043934 61 213 0.0 0.0 0.00 0.10 0.00 69 963.5
20260506043428 61 213 0.0 0.0 0.00 0.10 0.00 70 963.5
20260506042922 60 213 0.0 0.0 0.00 0.10 0.00 72 963.5
20260506042416 60 213 0.0 0.0 0.00 0.10 0.00 75 963.6
20260506041910 59 216 0.0 0.0 0.00 0.10 0.00 77 963.5
20260506041404 58 216 0.0 0.0 0.00 0.10 0.00 76 963.5
20260506040858 58 216 0.0 0.0 0.00 0.10 0.00 79 963.5
20260506040351 58 216 0.0 0.0 0.00 0.10 0.00 80 963.4
20260506040107 58 216 0.0 0.0 0.00 0.10 0.10 80 963.4
20260506035340 58 216 0.0 0.0 0.00 0.10 0.10 80 963.4
20260506035104 58 216 0.0 0.0 0.00 0.10 0.10 82 963.5
20260506034327 58 216 0.0 0.0 0.00 0.10 0.10 81 963.4
20260506033822 58 216 0.0 0.0 0.00 0.10 0.10 81 963.3
20260506033315 58 216 0.0 0.0 0.00 0.10 0.10 82 963.3
20260506032810 58 216 0.0 0.0 0.00 0.10 0.10 81 963.2
20260506032305 58 216 0.0 0.0 0.00 0.10 0.10 82 963.2
20260506032027 58 216 0.0 0.0 0.00 0.10 0.10 82 963.2
20260506031252 58 216 0.0 0.0 0.00 0.10 0.10 81 963.3
20260506030746 58 216 0.0 0.0 0.00 0.10 0.10 82 963.4
20260506030240 58 216 0.0 0.0 0.00 0.10 0.10 82 963.4
20260506025734 58 216 0.0 0.0 0.00 0.10 0.10 82 963.5
20260506025455 58 216 0.0 0.0 0.00 0.10 0.10 82 963.5
20260506024954 59 216 0.0 0.0 0.00 0.10 0.10 82 963.4
20260506024216 59 216 0.0 0.0 0.00 0.10 0.10 82 963.5
20260506023711 59 216 0.0 0.0 0.00 0.10 0.10 81 963.5
20260506023211 59 216 0.0 0.0 0.00 0.10 0.10 83 963.7
20260506022711 59 216 0.0 0.0 0.00 0.10 0.10 83 963.6
20260506022213 59 216 0.0 0.0 0.00 0.10 0.10 84 963.7
20260506022156 59 216 0.0 0.0 0.00 0.10 0.10 83 963.6
20260506021209 59 216 0.0 0.0 0.00 0.10 0.10 84 963.6
20260506020707 59 216 0.0 0.0 0.00 0.10 0.10 84 963.5
20260506020208 59 216 0.0 0.0 0.00 0.10 0.10 85 963.6
20260506015708 60 216 0.0 0.0 0.00 0.10 0.10 85 963.5
20260506015205 60 216 0.0 0.0 0.00 0.10 0.10 84 963.5
20260506014921 60 216 0.0 0.0 0.00 0.10 0.10 83 963.5
20260506014800 60 216 0.0 0.0 0.00 0.10 0.10 84 963.5
20260506013700 61 216 0.0 0.0 0.00 0.10 0.10 83 963.4
20260506013159 61 216 0.0 0.0 0.00 0.10 0.10 83 963.4
20260506012659 61 216 0.0 0.0 0.00 0.10 0.10 83 963.3
20260506012158 61 216 0.0 0.0 0.00 0.10 0.10 82 963.3
20260506011656 61 216 0.0 0.0 0.00 0.10 0.10 81 963.3
20260506011155 61 216 0.0 0.0 0.00 0.10 0.10 81 963.2
20260506010652 61 216 0.0 0.0 0.00 0.10 0.10 81 963.2
20260506010151 61 216 0.0 0.0 0.00 0.10 0.10 80 963.2
20260506005650 62 216 0.0 0.0 0.00 0.10 0.10 81 963.0
20260506005144 62 216 0.0 0.0 0.00 0.10 0.10 81 963.1
20260506004638 62 216 0.0 0.0 0.00 0.10 0.10 82 963.1
20260506004132 62 196 0.0 0.0 0.00 0.10 0.10 83 963.3
20260506003626 62 196 0.0 0.0 0.00 0.10 0.10 82 963.3
20260506003345 63 196 0.0 0.0 0.00 0.10 0.10 82 963.2
20260506002614 63 196 0.0 0.0 0.00 0.10 0.10 82 963.1
20260506002107 64 196 0.0 0.0 0.00 0.10 0.10 80 963.0
20260506001602 64 196 0.0 0.0 0.00 0.10 0.10 78 963.0
20260506001056 65 196 0.0 0.0 0.00 0.10 0.10 79 963.0
20260506000550 65 196 0.0 0.0 0.00 0.10 0.10 77 963.0
20260506000043 65 196 0.0 0.0 0.00 0.10 0.10 76 962.9
20260505235538 65 196 0.0 0.0 0.00 0.10 0.10 76 962.8
20260505235033 66 196 0.0 0.0 0.00 0.10 0.10 75 962.9
20260505234526 66 196 0.0 0.0 0.00 0.10 0.10 76 962.9
20260505234020 66 196 0.0 0.0 0.00 0.10 0.10 76 962.8
20260505233514 67 196 0.0 0.0 0.00 0.10 0.10 77 962.8
20260505233009 67 196 0.0 0.0 0.00 0.10 0.10 76 962.7
20260505232956 67 196 0.0 0.0 0.00 0.10 0.10 75 962.7
20260505232011 68 196 0.0 0.0 0.00 0.10 0.10 75 962.7
20260505231507 68 196 0.0 0.0 0.00 0.10 0.10 75 962.8
20260505231005 69 196 0.0 0.0 0.00 0.10 0.10 74 962.7
20260505230506 69 196 0.0 0.0 0.00 0.10 0.10 71 962.6
20260505230006 69 196 0.0 1.0 0.00 0.10 0.10 69 962.7
20260505225508 69 196 0.0 2.0 0.00 0.10 0.10 68 962.6
20260505225226 69 246 0.0 2.0 0.00 0.10 0.10 68 962.7
20260505224504 69 262 0.0 2.0 0.00 0.10 0.10 69 962.7
20260505224006 69 344 0.0 4.0 0.00 0.10 0.10 70 962.7
20260505223506 69 288 0.0 4.0 0.00 0.10 0.10 69 962.7
20260505223006 69 285 0.0 0.0 0.00 0.10 0.10 72 962.9
20260505222724 69 282 0.0 0.0 0.00 0.10 0.10 74 962.9
20260505222005 69 19 0.0 0.0 0.00 0.10 0.10 74 962.8
20260505221723 69 268 0.0 0.0 0.00 0.10 0.10 76 962.9
20260505221002 69 252 0.0 0.0 0.00 0.10 0.10 79 962.9
20260505220504 69 252 0.0 0.0 0.00 0.10 0.10 78 962.9
20260505215958 69 252 0.0 0.0 0.00 0.10 0.10 80 962.8
20260505215453 69 252 0.0 0.0 0.00 0.10 0.10 83 962.8
20260505214950 68 252 0.0 0.0 0.00 0.10 0.10 84 962.8
20260505214453 67 252 0.0 0.0 0.00 0.10 0.10 83 962.8
20260505213953 67 252 0.0 0.0 0.03 0.10 0.10 85 962.9
20260505213450 66 252 0.0 0.0 0.04 0.10 0.10 85 962.9
20260505213214 66 252 0.0 0.0 0.04 0.10 0.10 86 963.1
20260505212712 66 252 0.0 0.0 0.04 0.10 0.10 87 963.1
20260505211948 66 252 0.0 0.0 0.04 0.10 0.10 86 963.0
20260505211447 67 292 0.0 0.0 0.04 0.10 0.10 84 962.9
20260505210947 67 292 0.0 0.0 0.04 0.10 0.10 82 962.8
20260505210446 67 292 0.0 1.0 0.04 0.10 0.10 81 962.7
20260505205948 67 292 0.0 2.0 0.04 0.10 0.10 77 962.8
20260505205446 67 308 0.0 2.0 0.04 0.10 0.10 78 962.7
20260505204945 67 83 1.0 5.0 0.04 0.10 0.10 78 962.6
20260505204655 69 211 2.0 8.0 0.04 0.10 0.10 71 962.9
20260505204134 74 286 1.0 13.0 0.00 0.06 0.06 54 962.6
20260505204022 71 304 3.0 13.0 0.01 0.07 0.08 63 962.9
20260505203155 74 286 0.0 3.0 0.00 0.06 0.06 49 962.3
20260505202436 75 281 0.0 3.0 0.00 0.06 0.06 50 962.1
20260505201936 75 281 1.0 4.0 0.00 0.06 0.06 49 962.1
20260505201436 75 306 1.0 4.0 0.00 0.06 0.06 49 962.1
20260505200936 75 287 1.0 3.0 0.00 0.06 0.06 50 962.2
20260505200435 74 293 0.0 3.0 0.00 0.06 0.06 50 962.2
20260505195934 74 301 0.0 4.0 0.00 0.06 0.06 50 962.3
20260505195434 74 287 1.0 6.0 0.00 0.06 0.06 51 962.3
20260505194935 74 289 1.0 6.0 0.00 0.06 0.06 52 962.4
20260505194436 74 302 1.0 9.0 0.00 0.06 0.06 53 962.5
20260505193934 73 285 1.0 9.0 0.00 0.06 0.06 53 962.5
20260505193434 74 311 0.0 5.0 0.00 0.06 0.06 52 962.6
20260505192935 74 313 1.0 5.0 0.00 0.06 0.06 51 962.7
20260505192435 75 234 1.0 6.0 0.00 0.06 0.06 46 962.7
20260505191932 75 15 1.0 6.0 0.00 0.06 0.06 45 962.6
20260505191918 75 227 1.0 6.0 0.00 0.06 0.06 45 962.6
20260505190930 76 292 2.0 6.0 0.00 0.06 0.06 44 962.5
20260505190431 76 221 2.0 6.0 0.00 0.06 0.06 45 962.5
20260505185930 76 214 2.0 9.0 0.00 0.06 0.06 41 962.5
20260505185916 77 210 2.0 9.0 0.00 0.06 0.06 43 962.3
20260505184931 77 219 2.0 10.0 0.00 0.06 0.06 42 962.4
20260505184431 77 315 2.0 10.0 0.00 0.06 0.06 44 962.3
20260505183932 77 265 2.0 12.0 0.00 0.06 0.06 45 962.3
20260505183432 77 211 3.0 12.0 0.00 0.06 0.06 43 962.2
20260505182932 77 254 2.0 11.0 0.00 0.06 0.06 40 962.3
20260505182432 77 200 2.0 7.0 0.00 0.06 0.06 43 962.3
20260505181931 78 206 2.0 9.0 0.00 0.06 0.06 41 962.5
20260505181431 78 53 2.0 9.0 0.00 0.06 0.06 42 962.5
20260505180929 79 189 2.0 8.0 0.00 0.06 0.06 42 962.5
20260505180429 78 213 2.0 8.0 0.00 0.06 0.06 45 962.6
20260505180156 78 246 2.0 10.0 0.00 0.06 0.06 41 962.7
20260505175426 78 194 2.0 10.0 0.00 0.06 0.06 42 962.7
20260505174925 77 169 2.0 8.0 0.00 0.06 0.06 42 962.9
20260505174422 78 209 2.0 8.0 0.00 0.06 0.06 41 962.9
20260505173923 79 215 3.0 9.0 0.00 0.06 0.06 41 962.9
20260505173420 79 215 2.0 9.0 0.00 0.06 0.06 42 963.1
20260505172918 79 208 2.0 7.0 0.00 0.06 0.06 43 963.0
20260505172413 78 239 2.0 7.0 0.00 0.06 0.06 43 963.1
20260505172140 78 207 2.0 7.0 0.00 0.06 0.06 43 963.0
20260505171410 77 350 2.0 7.0 0.00 0.06 0.06 46 963.0
20260505170910 77 123 2.0 8.0 0.00 0.06 0.06 47 963.1
20260505170410 77 209 2.0 8.0 0.00 0.06 0.06 49 963.1
20260505165911 77 290 2.0 7.0 0.00 0.06 0.06 46 963.2
20260505165410 77 237 2.0 7.0 0.00 0.06 0.06 47 963.1
20260505164911 76 247 2.0 5.0 0.00 0.06 0.06 48 963.3
20260505164410 76 194 2.0 5.0 0.00 0.06 0.06 51 963.2
20260505163912 75 277 2.0 6.0 0.00 0.06 0.06 50 963.3
20260505163411 75 273 2.0 10.0 0.00 0.06 0.06 49 963.4
20260505162911 75 219 2.0 10.0 0.00 0.06 0.06 45 963.5
20260505162448 76 205 2.0 10.0 0.00 0.06 0.06 50 963.5
20260505162410 75 203 2.0 10.0 0.00 0.06 0.06 49 963.5
20260505162141 76 194 2.0 8.0 0.00 0.06 0.06 48 963.7
20260505161508 76 338 2.0 8.0 0.00 0.06 0.06 50 963.7
20260505160411 76 309 2.0 7.0 0.00 0.06 0.06 49 963.7
20260505153335 74 209 2.0 7.0 0.00 0.06 0.06 53 964.3
20260505152829 74 299 2.0 7.0 0.00 0.06 0.06 52 964.3
20260505152323 74 229 2.0 6.0 0.00 0.06 0.06 54 964.2
20260505151817 75 261 2.0 6.0 0.00 0.06 0.06 53 964.2
20260505151311 74 244 2.0 9.0 0.00 0.06 0.06 51 964.1
20260505150805 74 219 2.0 9.0 0.00 0.06 0.06 53 964.1
20260505150522 74 286 2.0 6.0 0.00 0.06 0.06 53 964.2
20260505140147 71 142 1.0 6.0 0.00 0.06 0.06 59 963.9
20260505130300 67 186 1.0 6.0 0.00 0.06 0.06 67 964.0
20260505125023 66 205 0.0 3.0 0.00 0.06 0.06 70 964.2
20260505124752 66 143 0.0 3.0 0.00 0.06 0.06 70 964.1
20260505124024 65 263 0.0 5.0 0.00 0.06 0.06 71 964.2
20260505123526 65 203 0.0 5.0 0.00 0.06 0.06 76 964.2
20260505123502 64 302 0.0 3.0 0.00 0.06 0.06 75 964.2
20260505122523 64 208 0.0 2.0 0.00 0.06 0.06 75 964.3
20260505122022 63 347 0.0 4.0 0.00 0.06 0.06 76 964.3
20260505121750 63 207 0.0 4.0 0.00 0.06 0.06 77 964.4
20260505121021 62 200 0.0 4.0 0.00 0.06 0.06 76 964.3
20260505120517 62 211 0.0 3.0 0.01 0.06 0.06 77 964.4
20260505120017 62 176 0.0 3.0 0.02 0.06 0.06 77 964.5
20260505115513 61 196 0.0 2.0 0.02 0.06 0.06 79 964.6
20260505115014 61 192 0.0 1.0 0.02 0.06 0.06 80 964.6
20260505114514 60 210 0.0 1.0 0.06 0.06 0.06 82 964.6
20260505114235 60 210 0.0 1.0 0.06 0.06 0.06 82 964.5
20260505113736 59 192 0.0 0.0 0.06 0.06 0.06 84 964.4
20260505113010 59 140 0.0 0.0 0.06 0.06 0.06 87 964.4
20260505112730 58 140 0.0 1.0 0.06 0.06 0.06 87 964.3
20260505112006 58 140 0.0 1.0 0.06 0.06 0.06 88 964.2
20260505111507 58 183 0.0 1.0 0.06 0.06 0.06 88 964.2
20260505111002 58 161 0.0 0.0 0.06 0.06 0.06 88 964.1
20260505110502 59 334 0.0 0.0 0.05 0.05 0.05 87 964.4
20260505101452 62 178 0.0 3.0 0.00 0.00 0.00 68 963.9
20260505100951 62 207 0.0 3.0 0.00 0.00 0.00 68 963.8
20260505100453 62 204 0.0 2.0 0.00 0.00 0.00 68 963.6
20260505100211 62 203 0.0 1.0 0.00 0.00 0.00 69 963.6